KAL017 RKSI-ROAH

Flight info

Callsign KAL017
Flight time 1h 51m
Altitude 38000
Route BOPTA Z51 BEDES Y711 KIDOS Z81 CJU Y572 RUGMA Y579 ONC Y525 IHEYA
Aircraft B77W/H-SDE1E2E3FGHIJ2J3J4J5M1RWXY/LB1D1

Departure

Time 2026-05-05 14:57
Airport Incheon International Airport (RKSI)

Arrival

Time 2026-05-05 16:49
Airport Naha International Airport (ROAH)
Time Latitude Longitude Altitude Speed Heading
2026-05-05 14:34 37.46321 126.43196 38 ft 0 kts 69°
2026-05-05 14:47 37.46316 126.43180 38 ft 2 kts 71°
2026-05-05 14:47 37.46311 126.43160 38 ft 2 kts 72°
2026-05-05 14:47 37.46306 126.43141 36 ft 2 kts 74°
2026-05-05 14:48 37.46302 126.43120 35 ft 2 kts 79°
2026-05-05 14:48 37.46300 126.43100 35 ft 2 kts 91°
2026-05-05 14:48 37.46303 126.43080 36 ft 2 kts 130°
2026-05-05 14:48 37.46313 126.43070 35 ft 1 kts 154°
2026-05-05 14:49 37.46314 126.43069 34 ft 0 kts 154°
2026-05-05 14:50 37.46313 126.43070 35 ft 0 kts 154°
2026-05-05 14:50 37.46273 126.43094 38 ft 20 kts 154°
2026-05-05 14:50 37.46096 126.43221 38 ft 31 kts 144°
2026-05-05 14:51 37.45971 126.43420 38 ft 30 kts 92°
2026-05-05 14:51 37.46069 126.43650 38 ft 30 kts 56°
2026-05-05 14:51 37.46191 126.43862 37 ft 30 kts 54°
2026-05-05 14:51 37.46311 126.44075 37 ft 30 kts 55°
2026-05-05 14:52 37.46430 126.44289 37 ft 30 kts 54°
2026-05-05 14:52 37.46546 126.44506 37 ft 30 kts 62°
2026-05-05 14:52 37.46672 126.44685 37 ft 24 kts
2026-05-05 14:52 37.46813 126.44583 37 ft 24 kts 325°
2026-05-05 14:53 37.46948 126.44461 37 ft 24 kts 325°
2026-05-05 14:53 37.47084 126.44343 37 ft 24 kts 325°
2026-05-05 14:53 37.47218 126.44223 37 ft 24 kts 324°
2026-05-05 14:53 37.47353 126.44102 37 ft 24 kts 324°
2026-05-05 14:54 37.47488 126.43982 37 ft 24 kts 324°
2026-05-05 14:54 37.47623 126.43863 37 ft 24 kts 324°
2026-05-05 14:54 37.47756 126.43744 37 ft 24 kts 324°
2026-05-05 14:54 37.47888 126.43626 37 ft 18 kts 324°
2026-05-05 14:55 37.47991 126.43568 37 ft 17 kts 15°
2026-05-05 14:55 37.48064 126.43662 37 ft 15 kts 52°
2026-05-05 14:55 37.48027 126.43768 37 ft 5 kts 141°
2026-05-05 14:55 37.48025 126.43770 37 ft 1 kts 141°
2026-05-05 14:56 37.48020 126.43775 37 ft 1 kts 141°
2026-05-05 14:56 37.48011 126.43783 37 ft 2 kts 141°
2026-05-05 14:56 37.47991 126.43804 37 ft 7 kts 143°
2026-05-05 14:56 37.47954 126.43838 37 ft 6 kts 144°
2026-05-05 14:57 37.47847 126.43933 37 ft 52 kts 144°
2026-05-05 14:57 37.47316 126.44407 38 ft 132 kts 145°
2026-05-05 14:57 37.46420 126.45216 155 ft 177 kts 143°
2026-05-05 14:57 37.45403 126.46147 849 ft 182 kts 143°
2026-05-05 14:58 37.44545 126.47320 1703 ft 188 kts 127°
2026-05-05 14:58 37.43760 126.48724 2073 ft 209 kts 134°
2026-05-05 14:58 37.42756 126.50219 2355 ft 237 kts 135°
2026-05-05 14:58 37.41666 126.51834 3018 ft 248 kts 133°
2026-05-05 14:59 37.40523 126.53536 3716 ft 260 kts 133°
2026-05-05 14:59 37.39333 126.55315 4492 ft 270 kts 132°
2026-05-05 14:59 37.38111 126.57143 4971 ft 274 kts 132°
2026-05-05 14:59 37.36727 126.58752 4979 ft 272 kts 157°
2026-05-05 15:00 37.34955 126.59495 5627 ft 271 kts 165°
2026-05-05 15:00 37.33760 126.59989 6207 ft 274 kts 163°
2026-05-05 15:00 37.31340 126.61052 7371 ft 278 kts 163°
2026-05-05 15:00 37.29500 126.61858 7910 ft 282 kts 163°
2026-05-05 15:01 37.27637 126.62663 7980 ft 283 kts 165°
2026-05-05 15:01 37.25742 126.62979 8174 ft 277 kts 184°
2026-05-05 15:01 37.23780 126.62857 9040 ft 281 kts 184°
2026-05-05 15:01 37.21814 126.62783 9914 ft 283 kts 182°
2026-05-05 15:02 37.19846 126.62725 10593 ft 293 kts 182°
2026-05-05 15:02 37.17705 126.62668 10831 ft 321 kts 182°
2026-05-05 15:02 37.15372 126.62610 11050 ft 350 kts 182°
2026-05-05 15:02 37.12848 126.62549 11078 ft 370 kts 181°
2026-05-05 15:03 37.10263 126.62502 11049 ft 373 kts 181°
2026-05-05 15:03 37.07669 126.62474 11044 ft 373 kts 181°
2026-05-05 15:03 37.05043 126.62447 11041 ft 372 kts 181°
2026-05-05 15:03 37.02439 126.62417 11265 ft 377 kts 181°
2026-05-05 15:04 36.99792 126.62384 12202 ft 381 kts 180°
2026-05-05 15:04 36.97149 126.62364 13071 ft 381 kts 179°
2026-05-05 15:04 36.94451 126.62395 13970 ft 391 kts 178°
2026-05-05 15:04 36.91741 126.62437 14856 ft 397 kts 179°
2026-05-05 15:05 36.86157 126.62422 16765 ft 407 kts 182°
2026-05-05 15:05 36.83311 126.62237 17654 ft 413 kts 182°
2026-05-05 15:05 36.80415 126.62027 18479 ft 421 kts 182°
2026-05-05 15:06 36.77463 126.61836 19243 ft 427 kts 182°
2026-05-05 15:06 36.74486 126.61668 20052 ft 431 kts 181°
2026-05-05 15:06 36.71491 126.61974 20844 ft 435 kts 167°
2026-05-05 15:06 36.68574 126.62969 21761 ft 434 kts 162°
2026-05-05 15:07 36.65717 126.64053 23164 ft 422 kts 163°
2026-05-05 15:07 36.62937 126.65083 24467 ft 411 kts 163°
2026-05-05 15:07 36.60211 126.66054 25607 ft 403 kts 163°
2026-05-05 15:07 36.57512 126.66990 26444 ft 404 kts 164°
2026-05-05 15:08 36.54777 126.67917 27058 ft 410 kts 164°
2026-05-05 15:08 36.52005 126.68844 27634 ft 417 kts 165°
2026-05-05 15:08 36.49175 126.69785 28270 ft 422 kts 165°
2026-05-05 15:08 36.46338 126.70728 29024 ft 423 kts 165°
2026-05-05 15:09 36.43492 126.71675 29790 ft 424 kts 164°
2026-05-05 15:09 36.40627 126.72632 30375 ft 429 kts 165°
2026-05-05 15:09 36.37729 126.73600 30889 ft 432 kts 165°
2026-05-05 15:09 36.34822 126.74579 31418 ft 435 kts 165°
2026-05-05 15:10 36.31895 126.75573 31991 ft 436 kts 166°
2026-05-05 15:10 36.28960 126.76560 32525 ft 438 kts 166°
2026-05-05 15:10 36.26011 126.77548 32984 ft 441 kts 166°
2026-05-05 15:10 36.23026 126.78548 33409 ft 445 kts 166°
2026-05-05 15:11 36.20022 126.79557 33840 ft 448 kts 166°
2026-05-05 15:11 36.17010 126.80383 34217 ft 449 kts 174°
2026-05-05 15:11 36.13874 126.80781 34666 ft 447 kts 180°
2026-05-05 15:11 36.10767 126.80814 35052 ft 446 kts 186°
2026-05-05 15:12 36.07714 126.80503 35359 ft 447 kts 188°
2026-05-05 15:12 36.04596 126.80128 35935 ft 442 kts 189°
2026-05-05 15:12 36.01565 126.79763 36133 ft 446 kts 188°
2026-05-05 15:13 35.95327 126.79051 36111 ft 449 kts 188°
2026-05-05 15:13 35.89182 126.78391 36108 ft 439 kts 188°
2026-05-05 15:14 35.84059 126.77844 36132 ft 442 kts 188°
2026-05-05 15:14 35.77898 126.77182 36127 ft 445 kts 189°
2026-05-05 15:15 35.71793 126.76526 36122 ft 441 kts 189°
2026-05-05 15:15 35.65689 126.75868 36127 ft 440 kts 189°
2026-05-05 15:16 35.59584 126.75208 36142 ft 442 kts 189°
2026-05-05 15:16 35.53480 126.74555 36111 ft 439 kts 188°
2026-05-05 15:17 35.47368 126.73916 36133 ft 443 kts 189°
2026-05-05 15:17 35.41226 126.73254 36128 ft 444 kts 189°
2026-05-05 15:18 35.35075 126.72602 36125 ft 442 kts 189°
2026-05-05 15:18 35.28920 126.71951 36125 ft 440 kts 189°
2026-05-05 15:19 35.22825 126.71305 36130 ft 438 kts 189°
2026-05-05 15:19 35.16749 126.70657 36132 ft 437 kts 189°
2026-05-05 15:20 35.10703 126.70022 36141 ft 435 kts 189°
2026-05-05 15:20 35.04656 126.69390 36140 ft 436 kts 189°
2026-05-05 15:21 34.98599 126.68754 36139 ft 437 kts 189°
2026-05-05 15:21 34.92541 126.68114 36138 ft 439 kts 189°
2026-05-05 15:22 34.86349 126.67455 36150 ft 455 kts 189°
2026-05-05 15:22 34.79985 126.66779 36139 ft 468 kts 189°
2026-05-05 15:23 34.73460 126.66096 36139 ft 470 kts 189°
2026-05-05 15:23 34.66991 126.65421 36128 ft 469 kts 189°
2026-05-05 15:24 34.60501 126.64741 36117 ft 467 kts 189°
2026-05-05 15:24 34.54040 126.64062 36129 ft 464 kts 189°
2026-05-05 15:25 34.47625 126.63385 36132 ft 461 kts 190°
2026-05-05 15:25 34.41244 126.62716 36151 ft 459 kts 189°
2026-05-05 15:26 34.34871 126.62038 36134 ft 459 kts 190°
2026-05-05 15:26 34.28506 126.61343 36140 ft 460 kts 190°
2026-05-05 15:27 34.22124 126.60663 36147 ft 460 kts 190°
2026-05-05 15:27 34.15740 126.60004 36135 ft 460 kts 190°
2026-05-05 15:28 34.09360 126.59344 36138 ft 460 kts 190°
2026-05-05 15:28 34.02975 126.58677 36145 ft 460 kts 190°
2026-05-05 15:29 33.96606 126.58011 36128 ft 459 kts 190°
2026-05-05 15:29 33.90248 126.57346 36138 ft 458 kts 190°
2026-05-05 15:30 33.83881 126.56850 36143 ft 461 kts 185°
2026-05-05 15:30 33.77439 126.57473 36116 ft 466 kts 180°
2026-05-05 15:31 33.70994 126.58346 36122 ft 464 kts 180°
2026-05-05 15:31 33.64575 126.59170 36125 ft 463 kts 180°
2026-05-05 15:32 33.58170 126.59967 36129 ft 463 kts 180°
2026-05-05 15:32 33.51768 126.60760 36116 ft 461 kts 181°
2026-05-05 15:33 33.45395 126.61550 36128 ft 460 kts 181°
2026-05-05 15:33 33.39035 126.62474 36129 ft 464 kts 176°
2026-05-05 15:34 33.32757 126.64546 36120 ft 471 kts 169°
2026-05-05 15:34 33.26541 126.67035 36137 ft 470 kts 169°
2026-05-05 15:35 33.20315 126.69442 36137 ft 470 kts 169°
2026-05-05 15:35 33.14094 126.71860 36144 ft 470 kts 169°
2026-05-05 15:36 33.07887 126.74271 36130 ft 469 kts 170°
2026-05-05 15:36 33.01695 126.76670 36145 ft 467 kts 171°
2026-05-05 15:37 32.95515 126.79066 36147 ft 465 kts 171°
2026-05-05 15:37 32.89410 126.81440 36149 ft 464 kts 171°
2026-05-05 15:38 32.83277 126.83816 36146 ft 463 kts 171°
2026-05-05 15:38 32.77154 126.86181 36151 ft 463 kts 171°
2026-05-05 15:39 32.71006 126.88551 36156 ft 463 kts 171°
2026-05-05 15:39 32.64869 126.90913 36152 ft 464 kts 171°
2026-05-05 15:40 32.58730 126.93272 36137 ft 464 kts 171°
2026-05-05 15:40 32.52588 126.95629 36149 ft 463 kts 171°
2026-05-05 15:41 32.46446 126.97883 36147 ft 460 kts 173°
2026-05-05 15:41 32.40290 126.99911 36141 ft 459 kts 174°
2026-05-05 15:42 32.34141 127.01945 36115 ft 458 kts 174°
2026-05-05 15:42 32.28034 127.03997 36136 ft 455 kts 174°
2026-05-05 15:43 32.21950 127.06049 36146 ft 453 kts 174°
2026-05-05 15:43 32.15897 127.08088 36143 ft 452 kts 174°
2026-05-05 15:44 32.09851 127.10113 36130 ft 451 kts 174°
2026-05-05 15:44 32.03850 127.12125 36143 ft 450 kts 174°
2026-05-05 15:45 31.97789 127.14155 36147 ft 450 kts 174°
2026-05-05 15:45 31.91803 127.16152 36149 ft 450 kts 174°
2026-05-05 15:46 31.85776 127.18157 36107 ft 450 kts 175°
2026-05-05 15:46 31.79755 127.20157 36138 ft 449 kts 175°
2026-05-05 15:47 31.73743 127.22151 36146 ft 449 kts 175°
2026-05-05 15:47 31.67735 127.24140 36131 ft 448 kts 175°
2026-05-05 15:48 31.61740 127.26122 36141 ft 447 kts 175°
2026-05-05 15:48 31.55759 127.28098 36136 ft 446 kts 175°
2026-05-05 15:49 31.49808 127.30060 36137 ft 445 kts 175°
2026-05-05 15:49 31.43842 127.32023 36143 ft 445 kts 176°
2026-05-05 15:50 31.37884 127.33981 36143 ft 444 kts 176°
2026-05-05 15:50 31.31934 127.35933 36136 ft 443 kts 176°
2026-05-05 15:51 31.25999 127.37879 36137 ft 443 kts 176°
2026-05-05 15:51 31.21072 127.39512 36142 ft 443 kts 175°
2026-05-05 15:52 31.14148 127.41833 36144 ft 443 kts 175°
2026-05-05 15:52 31.09224 127.43478 36125 ft 442 kts 176°
2026-05-05 15:53 31.02348 127.45766 36137 ft 442 kts 176°
2026-05-05 15:53 30.97396 127.47409 36140 ft 441 kts 176°
2026-05-05 15:54 30.91494 127.49366 36130 ft 441 kts 176°
2026-05-05 15:54 30.85629 127.51307 36100 ft 441 kts 176°
2026-05-05 15:55 30.79732 127.53257 36128 ft 441 kts 176°
2026-05-05 15:55 30.73835 127.55204 36137 ft 441 kts 176°
2026-05-05 15:56 30.67923 127.57154 36135 ft 442 kts 176°
2026-05-05 15:56 30.62007 127.59102 36134 ft 442 kts 176°
2026-05-05 15:57 30.56093 127.61048 36125 ft 442 kts 176°
2026-05-05 15:57 30.50163 127.62996 36132 ft 442 kts 176°
2026-05-05 15:58 30.44230 127.64942 36131 ft 443 kts 176°
2026-05-05 15:58 30.38294 127.66885 36133 ft 443 kts 176°
2026-05-05 15:59 30.32355 127.68826 36131 ft 443 kts 176°
2026-05-05 15:59 30.26424 127.70765 36128 ft 443 kts 176°
2026-05-05 16:00 30.20529 127.72690 36123 ft 443 kts 176°
2026-05-05 16:00 30.14597 127.74620 36127 ft 443 kts 176°
2026-05-05 16:01 30.08669 127.76542 36111 ft 443 kts 176°
2026-05-05 16:01 30.02732 127.78464 36126 ft 443 kts 176°
2026-05-05 16:02 29.96788 127.80386 36124 ft 444 kts 176°
2026-05-05 16:02 29.90830 127.82308 36123 ft 445 kts 175°
2026-05-05 16:03 29.84865 127.84253 36095 ft 447 kts 174°
2026-05-05 16:03 29.78921 127.86515 36113 ft 451 kts 172°
2026-05-05 16:04 29.73021 127.88836 36113 ft 451 kts 172°
2026-05-05 16:04 29.67058 127.91126 36110 ft 451 kts 173°
2026-05-05 16:05 29.61133 127.93373 36120 ft 451 kts 173°
2026-05-05 16:05 29.55165 127.95633 36081 ft 451 kts 172°
2026-05-05 16:06 29.49178 127.97901 36140 ft 456 kts 172°
2026-05-05 16:06 29.46178 127.99037 36596 ft 450 kts 173°
2026-05-05 16:06 29.43224 128.00162 37219 ft 443 kts 173°
2026-05-05 16:06 29.40354 128.01254 37822 ft 436 kts 174°
2026-05-05 16:07 29.37439 128.02355 38136 ft 437 kts 174°
2026-05-05 16:07 29.31596 128.04529 38078 ft 451 kts 173°
2026-05-05 16:08 29.25553 128.06786 38109 ft 462 kts 173°
2026-05-05 16:08 29.19378 128.09104 38112 ft 472 kts 173°
2026-05-05 16:09 29.13121 128.11456 38100 ft 474 kts 173°
2026-05-05 16:09 29.06858 128.13805 37815 ft 470 kts 173°
2026-05-05 16:09 29.03768 128.14963 37217 ft 466 kts 172°
2026-05-05 16:10 29.00702 128.16101 36717 ft 459 kts 173°
2026-05-05 16:10 28.97679 128.17176 36274 ft 452 kts 173°
2026-05-05 16:10 28.94711 128.18207 36126 ft 441 kts 173°
2026-05-05 16:11 28.88801 128.20224 36092 ft 442 kts 173°
2026-05-05 16:12 28.77092 128.24250 36090 ft 438 kts 173°
2026-05-05 16:13 28.62541 128.29264 36103 ft 437 kts 173°
2026-05-05 16:13 28.56732 128.31262 36105 ft 437 kts 173°
2026-05-05 16:14 28.45066 128.35267 36101 ft 439 kts 172°
2026-05-05 16:15 28.33330 128.39286 36107 ft 442 kts 172°
2026-05-05 16:16 28.21536 128.43314 36093 ft 444 kts 172°
2026-05-05 16:17 28.12656 128.46370 36106 ft 445 kts 172°
2026-05-05 16:18 28.03759 128.49438 36101 ft 446 kts 172°
2026-05-05 16:19 27.94808 128.52505 36113 ft 456 kts 172°
2026-05-05 16:19 27.85492 128.55678 36104 ft 472 kts 172°
2026-05-05 16:20 27.72967 128.59923 36087 ft 470 kts 172°
2026-05-05 16:22 27.57363 128.65178 36080 ft 467 kts 172°
2026-05-05 16:22 27.51148 128.67211 36053 ft 456 kts 178°
2026-05-05 16:23 27.45219 128.66581 36061 ft 412 kts 209°
2026-05-05 16:23 27.42761 128.65112 36077 ft 390 kts 218°
2026-05-05 16:23 27.38747 128.61353 35702 ft 366 kts 235°
2026-05-05 16:24 27.37372 128.58930 34763 ft 369 kts 240°
2026-05-05 16:24 27.36077 128.56416 33513 ft 373 kts 240°
2026-05-05 16:24 27.33512 128.51406 31047 ft 367 kts 240°
2026-05-05 16:25 27.32233 128.48938 29841 ft 364 kts 240°
2026-05-05 16:25 27.29706 128.44105 27281 ft 357 kts 239°
2026-05-05 16:25 27.28449 128.41718 26086 ft 354 kts 239°
2026-05-05 16:26 27.25970 128.37088 24016 ft 342 kts 234°
2026-05-05 16:26 27.22509 128.33558 21792 ft 334 kts 216°
2026-05-05 16:27 27.20503 128.32260 20691 ft 332 kts 208°
2026-05-05 16:27 27.18408 128.31194 19635 ft 328 kts 207°
2026-05-05 16:27 27.16325 128.30177 18617 ft 324 kts 206°
2026-05-05 16:27 27.14269 128.29180 17485 ft 320 kts 206°
2026-05-05 16:28 27.12244 128.28194 16377 ft 315 kts 206°
2026-05-05 16:28 27.10244 128.27214 15299 ft 312 kts 206°
2026-05-05 16:28 27.08269 128.26242 14257 ft 308 kts 207°
2026-05-05 16:28 27.06324 128.25281 13144 ft 304 kts 206°
2026-05-05 16:29 27.04397 128.24326 12094 ft 300 kts 206°
2026-05-05 16:29 27.02525 128.23398 11485 ft 285 kts 206°
2026-05-05 16:29 27.00779 128.22536 11255 ft 266 kts 206°
2026-05-05 16:29 26.99083 128.21694 10916 ft 269 kts 206°
2026-05-05 16:30 26.97338 128.20825 10476 ft 278 kts 206°
2026-05-05 16:30 26.95554 128.19937 10018 ft 283 kts 206°
2026-05-05 16:30 26.93753 128.19040 9516 ft 282 kts 205°
2026-05-05 16:30 26.92008 128.18175 8994 ft 267 kts 205°
2026-05-05 16:31 26.90325 128.17341 8738 ft 262 kts 205°
2026-05-05 16:31 26.88659 128.16515 8492 ft 262 kts 205°
2026-05-05 16:31 26.86992 128.15688 8249 ft 263 kts 205°
2026-05-05 16:31 26.85319 128.14856 8013 ft 263 kts 205°
2026-05-05 16:32 26.83662 128.14027 7940 ft 259 kts 205°
2026-05-05 16:32 26.82003 128.13195 7871 ft 264 kts 205°
2026-05-05 16:32 26.80317 128.12348 7825 ft 267 kts 205°
2026-05-05 16:32 26.79194 128.11783 7778 ft 266 kts 205°
2026-05-05 16:33 26.76961 128.10660 7667 ft 265 kts 205°
2026-05-05 16:33 26.75259 128.09805 7595 ft 264 kts 205°
2026-05-05 16:33 26.74149 128.09247 7556 ft 264 kts 205°
2026-05-05 16:33 26.71932 128.08131 7457 ft 263 kts 204°
2026-05-05 16:34 26.70807 128.07565 7401 ft 263 kts 204°
2026-05-05 16:34 26.68593 128.06452 7303 ft 262 kts 204°
2026-05-05 16:34 26.66929 128.05615 7229 ft 262 kts 204°
2026-05-05 16:34 26.65268 128.04780 7155 ft 262 kts 204°
2026-05-05 16:35 26.64155 128.04220 7095 ft 258 kts 204°
2026-05-05 16:35 26.62539 128.03408 7003 ft 253 kts 204°
2026-05-05 16:35 26.60939 128.02606 6926 ft 251 kts 204°
2026-05-05 16:35 26.59338 128.01802 6786 ft 256 kts 204°
2026-05-05 16:36 26.57692 128.00978 6449 ft 262 kts 204°
2026-05-05 16:36 26.56020 128.00137 6086 ft 264 kts 203°
2026-05-05 16:36 26.54347 127.99292 5718 ft 264 kts 203°
2026-05-05 16:36 26.52671 127.98450 5355 ft 265 kts 203°
2026-05-05 16:37 26.50980 127.97604 4986 ft 266 kts 202°
2026-05-05 16:37 26.49292 127.96759 4621 ft 266 kts 202°
2026-05-05 16:37 26.47596 127.95910 4239 ft 268 kts 202°
2026-05-05 16:37 26.45894 127.95056 3874 ft 268 kts 201°
2026-05-05 16:38 26.44191 127.94203 3504 ft 269 kts 201°
2026-05-05 16:38 26.42480 127.93346 3142 ft 270 kts 200°
2026-05-05 16:38 26.40783 127.92496 3001 ft 261 kts 200°
2026-05-05 16:38 26.39157 127.91680 2996 ft 253 kts 200°
2026-05-05 16:39 26.37560 127.90882 3007 ft 250 kts 200°
2026-05-05 16:39 26.35982 127.90095 3025 ft 255 kts 200°
2026-05-05 16:39 26.34357 127.89284 3026 ft 256 kts 200°
2026-05-05 16:39 26.32730 127.88473 3003 ft 257 kts 201°
2026-05-05 16:40 26.31097 127.87652 2997 ft 257 kts 200°
2026-05-05 16:40 26.29468 127.86838 3002 ft 257 kts 201°
2026-05-05 16:40 26.27856 127.86031 2745 ft 249 kts 200°
2026-05-05 16:40 26.26308 127.85255 2456 ft 238 kts 199°
2026-05-05 16:41 26.24825 127.84518 2180 ft 230 kts 199°
2026-05-05 16:41 26.23377 127.83797 2148 ft 229 kts 199°
2026-05-05 16:41 26.21898 127.83059 2126 ft 236 kts 200°
2026-05-05 16:41 26.20408 127.82315 2130 ft 232 kts 199°
2026-05-05 16:42 26.18977 127.81599 2121 ft 218 kts 199°
2026-05-05 16:42 26.17631 127.80926 2155 ft 214 kts 199°
2026-05-05 16:42 26.16246 127.80242 2144 ft 218 kts 200°
2026-05-05 16:42 26.14871 127.79554 2087 ft 214 kts 199°
2026-05-05 16:43 26.13526 127.78881 2031 ft 210 kts 199°
2026-05-05 16:43 26.12220 127.78227 1986 ft 200 kts 199°
2026-05-05 16:43 26.10982 127.77610 1974 ft 191 kts 199°
2026-05-05 16:43 26.09774 127.77011 1988 ft 189 kts 196°
2026-05-05 16:44 26.08582 127.76423 1983 ft 186 kts 196°
2026-05-05 16:44 26.07427 127.75851 1979 ft 178 kts 195°
2026-05-05 16:44 26.06292 127.75289 1998 ft 180 kts 197°
2026-05-05 16:44 26.05271 127.74462 1987 ft 190 kts 228°
2026-05-05 16:45 26.04947 127.73041 1994 ft 197 kts 271°
2026-05-05 16:45 26.04993 127.71489 2011 ft 202 kts 265°
2026-05-05 16:45 26.04941 127.69952 1989 ft 196 kts 264°
2026-05-05 16:45 26.04879 127.68446 1991 ft 196 kts 265°
2026-05-05 16:46 26.05042 127.66961 1981 ft 194 kts 296°
2026-05-05 16:46 26.05955 127.65930 2000 ft 188 kts 338°
2026-05-05 16:46 26.07185 127.65447 2042 ft 187 kts 347°
2026-05-05 16:46 26.08443 127.65163 1922 ft 185 kts 356°
2026-05-05 16:47 26.09710 127.64973 1654 ft 180 kts 359°
2026-05-05 16:47 26.10927 127.64898 1407 ft 171 kts
2026-05-05 16:47 26.12086 127.64851 1201 ft 167 kts
2026-05-05 16:47 26.13240 127.64804 988 ft 165 kts
2026-05-05 16:48 26.14376 127.64755 778 ft 161 kts
2026-05-05 16:48 26.15492 127.64709 609 ft 162 kts
2026-05-05 16:48 26.16585 127.64694 394 ft 149 kts
2026-05-05 16:48 26.17592 127.64685 173 ft 143 kts
2026-05-05 16:49 26.18532 127.64634 29 ft 128 kts
2026-05-05 16:49 26.19291 127.64600 24 ft 66 kts 357°
2026-05-05 16:49 26.19653 127.64588 21 ft 49 kts
2026-05-05 16:49 26.19906 127.64693 23 ft 15 kts 27°
2026-05-05 16:50 26.19933 127.64708 23 ft 0 kts 27°
2026-05-05 16:50 26.19935 127.64709 23 ft 0 kts 27°
2026-05-05 16:50 26.19948 127.64717 26 ft 11 kts 27°
2026-05-05 16:50 26.20054 127.64766 24 ft 17 kts
2026-05-05 16:51 26.20172 127.64766 24 ft 17 kts 358°
2026-05-05 16:51 26.20290 127.64760 23 ft 17 kts 358°
2026-05-05 16:51 26.20370 127.64757 24 ft 0 kts 358°
2026-05-05 16:51 26.20372 127.64757 24 ft 0 kts 358°
2026-05-05 16:52 26.20376 127.64757 24 ft 1 kts 358°
2026-05-05 16:52 26.20420 127.64755 26 ft 21 kts 358°
2026-05-05 16:52 26.20602 127.64746 24 ft 27 kts 357°
2026-05-05 16:52 26.20769 127.64738 23 ft 20 kts 357°
2026-05-05 16:53 26.20819 127.64735 23 ft 1 kts 358°
2026-05-05 16:53 26.20865 127.64742 25 ft 13 kts 16°
2026-05-05 16:53 26.20913 127.64825 27 ft 14 kts 75°
2026-05-05 16:53 26.20982 127.64879 27 ft 10 kts 24°
2026-05-05 16:54 26.21004 127.64943 30 ft 8 kts 84°
2026-05-05 16:54 26.21005 127.64965 26 ft 1 kts 86°
2026-05-05 16:54 26.21006 127.64968 26 ft 0 kts 86°